| time (UTC) | temp F | wind direction | speed MPH | gust MPH | rain 1hr in | rain 24hr in | rain mn in | humidity % | barometer mb |
| 20260505054250 | 75 | 186 | 0.0 | 0.0 | 0.00 | 0.00 | 0.00 | 22 | 1014.3 |
| 20260505053740 | 75 | 134 | 0.0 | 0.0 | 0.00 | 0.00 | 0.00 | 20 | 1014.3 |
| 20260505053144 | 75 | 214 | 0.0 | 0.0 | 0.00 | 0.00 | 0.00 | 20 | 1014.3 |
| 20260505052241 | 75 | 165 | 0.0 | 0.0 | 0.00 | 0.00 | 0.00 | 17 | 1014.4 |
| 20260505051737 | 75 | 252 | 0.0 | 0.0 | 0.00 | 0.00 | 0.00 | 17 | 1014.4 |
| 20260505051245 | 77 | 120 | 0.0 | 0.0 | 0.00 | 0.00 | 0.00 | 14 | 1014.7 |
| 20260505050743 | 77 | 100 | 0.0 | 0.0 | 0.00 | 0.00 | 0.00 | 14 | 1014.7 |
| 20260505050240 | 76 | 111 | 0.0 | 0.0 | 0.00 | 0.00 | 0.00 | 14 | 1014.7 |
| 20260505050127 | 76 | 104 | 0.0 | 0.0 | 0.00 | 0.00 | 0.00 | 14 | 1014.7 |
| 20260505041747 | 75 | 244 | 0.0 | 0.0 | 0.00 | 0.00 | 0.00 | 14 | 1015.0 |
| 20260505041239 | 76 | 245 | 0.0 | 0.0 | 0.00 | 0.00 | 0.00 | 14 | 1015.0 |
| 20260505040748 | 76 | 115 | 0.0 | 0.0 | 0.00 | 0.00 | 0.00 | 13 | 1015.0 |
| 20260505040246 | 76 | 79 | 0.0 | 0.0 | 0.00 | 0.00 | 0.00 | 13 | 1015.0 |
| 20260505040130 | 76 | 83 | 0.0 | 0.0 | 0.00 | 0.00 | 0.00 | 13 | 1015.0 |
| 20260505035753 | 76 | 76 | 0.0 | 0.0 | 0.00 | 0.00 | 0.00 | 13 | 1014.9 |
| 20260505035241 | 77 | 69 | 0.0 | 0.0 | 0.00 | 0.00 | 0.00 | 14 | 1014.9 |
| 20260505034734 | 76 | 73 | 0.0 | 0.0 | 0.00 | 0.00 | 0.00 | 14 | 1014.9 |
| 20260505034245 | 76 | 43 | 0.0 | 0.0 | 0.00 | 0.00 | 0.00 | 16 | 1015.0 |
| 20260505033254 | 75 | 56 | 0.0 | 0.0 | 0.00 | 0.00 | 0.00 | 15 | 1015.0 |
| 20260505033138 | 75 | 59 | 0.0 | 0.0 | 0.00 | 0.00 | 0.00 | 15 | 1015.0 |
| 20260505032248 | 74 | 60 | 0.0 | 0.0 | 0.00 | 0.00 | 0.00 | 15 | 1014.9 |
| 20260505031743 | 74 | 331 | 0.0 | 0.0 | 0.00 | 0.00 | 0.00 | 16 | 1014.9 |
| 20260505031242 | 73 | 90 | 0.0 | 0.0 | 0.00 | 0.00 | 0.00 | 16 | 1014.9 |
| 20260505030737 | 73 | 59 | 0.0 | 0.0 | 0.00 | 0.00 | 0.00 | 16 | 1014.9 |
| 20260505030253 | 74 | 83 | 0.0 | 0.0 | 0.00 | 0.00 | 0.00 | 16 | 1014.9 |
| 20260505025742 | 73 | 360 | 0.0 | 0.0 | 0.00 | 0.00 | 0.00 | 16 | 1014.9 |
| 20260505025252 | 73 | 29 | 0.0 | 0.0 | 0.00 | 0.00 | 0.00 | 17 | 1014.9 |
| 20260505023747 | 73 | 2 | 0.0 | 0.0 | 0.00 | 0.00 | 0.00 | 17 | 1015.2 |
| 20260505023248 | 73 | 59 | 0.0 | 0.0 | 0.00 | 0.00 | 0.00 | 16 | 1015.2 |
| 20260505023132 | 73 | 76 | 0.0 | 0.0 | 0.00 | 0.00 | 0.00 | 17 | 1015.2 |
| 20260505022753 | 72 | 360 | 0.0 | 0.0 | 0.00 | 0.00 | 0.00 | 16 | 1015.1 |
| 20260505022242 | 72 | 354 | 0.0 | 0.0 | 0.00 | 0.00 | 0.00 | 16 | 1015.1 |
| 20260505021740 | 72 | 357 | 0.0 | 0.0 | 0.00 | 0.00 | 0.00 | 17 | 1015.1 |
| 20260505021251 | 72 | 8 | 0.0 | 0.0 | 0.00 | 0.00 | 0.00 | 17 | 1015.1 |
| 20260505020249 | 71 | 314 | 0.0 | 0.0 | 0.00 | 0.00 | 0.00 | 17 | 1015.1 |
| 20260505020133 | 71 | 8 | 0.0 | 0.0 | 0.00 | 0.00 | 0.00 | 17 | 1015.1 |
| 20260505015754 | 71 | 14 | 0.0 | 0.0 | 0.00 | 0.00 | 0.00 | 18 | 1015.2 |
| 20260505015241 | 71 | 80 | 0.0 | 0.0 | 0.00 | 0.00 | 0.00 | 17 | 1015.2 |
| 20260505014246 | 70 | 4 | 0.0 | 0.0 | 0.00 | 0.00 | 0.00 | 18 | 1015.1 |
| 20260505013737 | 70 | 7 | 0.0 | 0.0 | 0.00 | 0.00 | 0.00 | 17 | 1015.1 |
| 20260505013254 | 70 | 329 | 0.0 | 0.0 | 0.00 | 0.00 | 0.00 | 17 | 1015.1 |
| 20260505012745 | 69 | 31 | 0.0 | 0.0 | 0.00 | 0.00 | 0.00 | 19 | 1014.9 |
| 20260505012253 | 69 | 69 | 0.0 | 0.0 | 0.00 | 0.00 | 0.00 | 18 | 1014.9 |
| 20260505011244 | 69 | 65 | 0.0 | 0.0 | 0.00 | 0.00 | 0.00 | 19 | 1015.0 |
| 20260505010754 | 69 | 31 | 0.0 | 0.0 | 0.00 | 0.00 | 0.00 | 18 | 1015.0 |
| 20260505010252 | 68 | 26 | 0.0 | 0.0 | 0.00 | 0.00 | 0.00 | 19 | 1015.0 |
| 20260505010136 | 68 | 10 | 0.0 | 0.0 | 0.00 | 0.00 | 0.00 | 19 | 1015.0 |
| 20260505004249 | 67 | 348 | 0.0 | 0.0 | 0.00 | 0.00 | 0.00 | 19 | 1014.9 |
| 20260505003241 | 67 | 330 | 0.0 | 0.0 | 0.00 | 0.00 | 0.00 | 18 | 1014.9 |
| 20260505003144 | 67 | 346 | 0.0 | 0.0 | 0.00 | 0.00 | 0.00 | 18 | 1014.9 |
| 20260505002743 | 67 | 329 | 0.0 | 0.0 | 0.00 | 0.00 | 0.00 | 18 | 1015.0 |
| 20260505002252 | 66 | 7 | 0.0 | 0.0 | 0.00 | 0.00 | 0.00 | 19 | 1014.9 |
| 20260505001745 | 66 | 70 | 0.0 | 0.0 | 0.00 | 0.00 | 0.00 | 19 | 1014.9 |
| 20260505000752 | 65 | 329 | 0.0 | 0.0 | 0.00 | 0.00 | 0.00 | 21 | 1014.9 |
| 20260505000248 | 65 | 320 | 0.0 | 0.0 | 0.00 | 0.00 | 0.00 | 18 | 1014.9 |
| 20260505000132 | 65 | 316 | 0.0 | 0.0 | 0.00 | 0.00 | 0.00 | 20 | 1014.9 |
| 20260504235753 | 65 | 353 | 0.0 | 0.0 | 0.00 | 0.00 | 0.00 | 19 | 1014.9 |
| 20260504235242 | 64 | 7 | 0.0 | 0.0 | 0.00 | 0.00 | 0.00 | 20 | 1014.9 |
| 20260504234739 | 64 | 307 | 0.0 | 0.0 | 0.00 | 0.00 | 0.00 | 21 | 1014.9 |
| 20260504234244 | 64 | 317 | 0.0 | 0.0 | 0.00 | 0.00 | 0.00 | 21 | 1015.3 |
| 20260504233754 | 64 | 296 | 0.0 | 0.0 | 0.00 | 0.00 | 0.00 | 22 | 1015.3 |
| 20260504233141 | 64 | 343 | 0.0 | 0.0 | 0.00 | 0.00 | 0.00 | 22 | 1015.3 |
| 20260504232237 | 63 | 337 | 0.0 | 0.0 | 0.00 | 0.00 | 0.00 | 23 | 1015.3 |
| 20260504231751 | 63 | 4 | 0.0 | 0.0 | 0.00 | 0.00 | 0.00 | 24 | 1015.3 |
| 20260504231242 | 63 | 12 | 0.0 | 0.0 | 0.00 | 0.00 | 0.00 | 25 | 1015.3 |
| 20260504230736 | 62 | 314 | 0.0 | 0.0 | 0.00 | 0.00 | 0.00 | 25 | 1015.3 |
| 20260504230253 | 62 | 104 | 0.0 | 0.0 | 0.00 | 0.00 | 0.00 | 25 | 1015.3 |
| 20260504230138 | 62 | 329 | 0.0 | 0.0 | 0.00 | 0.00 | 0.00 | 25 | 1015.3 |
| 20260504225736 | 62 | 327 | 0.0 | 0.0 | 0.00 | 0.00 | 0.00 | 26 | 1015.2 |
| 20260504225245 | 62 | 344 | 0.0 | 0.0 | 0.00 | 0.00 | 0.00 | 25 | 1015.2 |
| 20260504224740 | 62 | 327 | 0.0 | 0.0 | 0.00 | 0.00 | 0.00 | 25 | 1015.2 |
| 20260504224250 | 62 | 26 | 0.0 | 0.0 | 0.00 | 0.00 | 0.00 | 25 | 1015.0 |
| 20260504223743 | 61 | 93 | 0.0 | 0.0 | 0.00 | 0.00 | 0.00 | 26 | 1014.9 |
| 20260504223245 | 61 | 42 | 0.0 | 0.0 | 0.00 | 0.00 | 0.00 | 26 | 1014.9 |
| 20260504223129 | 61 | 288 | 0.0 | 0.0 | 0.00 | 0.00 | 0.00 | 26 | 1014.9 |
| 20260504222753 | 61 | 313 | 0.0 | 0.0 | 0.00 | 0.00 | 0.00 | 27 | 1015.1 |
| 20260504222243 | 61 | 8 | 0.0 | 0.0 | 0.00 | 0.00 | 0.00 | 27 | 1015.1 |
| 20260504221736 | 60 | 322 | 0.0 | 0.0 | 0.00 | 0.00 | 0.00 | 27 | 1015.1 |
| 20260504221245 | 60 | 336 | 0.0 | 0.0 | 0.00 | 0.00 | 0.00 | 28 | 1014.8 |
| 20260504220238 | 60 | 299 | 0.0 | 0.0 | 0.00 | 0.00 | 0.00 | 27 | 1014.8 |
| 20260504220146 | 60 | 309 | 0.0 | 0.0 | 0.00 | 0.00 | 0.00 | 28 | 1014.8 |
| 20260504215240 | 59 | 354 | 0.0 | 0.0 | 0.00 | 0.00 | 0.00 | 30 | 1014.7 |
| 20260504214252 | 58 | 288 | 0.0 | 0.0 | 0.00 | 0.00 | 0.00 | 31 | 1014.4 |
| 20260504213744 | 58 | 317 | 0.0 | 0.0 | 0.00 | 0.00 | 0.00 | 31 | 1014.4 |
| 20260504213243 | 57 | 84 | 0.0 | 0.0 | 0.00 | 0.00 | 0.00 | 32 | 1014.4 |
| 20260504213127 | 57 | 310 | 0.0 | 0.0 | 0.00 | 0.00 | 0.00 | 32 | 1014.4 |
| 20260504212749 | 57 | 329 | 0.0 | 0.0 | 0.00 | 0.00 | 0.00 | 32 | 1014.2 |
| 20260504212240 | 57 | 317 | 0.0 | 0.0 | 0.00 | 0.00 | 0.00 | 32 | 1014.2 |
| 20260504211753 | 57 | 322 | 0.0 | 0.0 | 0.00 | 0.00 | 0.00 | 33 | 1014.2 |
| 20260504211243 | 56 | 312 | 0.0 | 0.0 | 0.00 | 0.00 | 0.00 | 34 | 1013.8 |
| 20260504210745 | 56 | 313 | 0.0 | 0.0 | 0.00 | 0.00 | 0.00 | 35 | 1013.8 |
| 20260504210131 | 56 | 309 | 0.0 | 0.0 | 0.00 | 0.00 | 0.00 | 37 | 1013.8 |
| 20260504205752 | 55 | 326 | 0.0 | 0.0 | 0.00 | 0.00 | 0.00 | 38 | 1013.5 |
| 20260504205241 | 55 | 327 | 0.0 | 0.0 | 0.00 | 0.00 | 0.00 | 39 | 1013.5 |
| 20260504204735 | 54 | 327 | 0.0 | 0.0 | 0.00 | 0.00 | 0.00 | 40 | 1013.5 |
| 20260504204244 | 54 | 326 | 0.0 | 0.0 | 0.00 | 0.00 | 0.00 | 40 | 1013.3 |
| 20260504203738 | 54 | 326 | 0.0 | 0.0 | 0.00 | 0.00 | 0.00 | 40 | 1013.3 |
| 20260504203237 | 54 | 343 | 0.0 | 0.0 | 0.00 | 0.00 | 0.00 | 41 | 1013.3 |
| 20260504203140 | 54 | 340 | 0.0 | 0.0 | 0.00 | 0.00 | 0.00 | 41 | 1013.3 |
| 20260504202738 | 54 | 331 | 0.0 | 0.0 | 0.00 | 0.00 | 0.00 | 41 | 1013.0 |
| 20260504202248 | 54 | 347 | 0.0 | 0.0 | 0.00 | 0.00 | 0.00 | 41 | 1013.0 |
| 20260504200739 | 54 | 12 | 0.0 | 0.0 | 0.00 | 0.00 | 0.00 | 39 | 1012.5 |
| 20260504200236 | 54 | 334 | 0.0 | 0.0 | 0.00 | 0.00 | 0.00 | 39 | 1012.5 |
| 20260504200140 | 54 | 334 | 0.0 | 0.0 | 0.00 | 0.00 | 0.00 | 39 | 1012.5 |
| 20260504195741 | 54 | 333 | 0.0 | 0.0 | 0.00 | 0.00 | 0.00 | 38 | 1011.9 |
| 20260504195252 | 54 | 338 | 0.0 | 0.0 | 0.00 | 0.00 | 0.00 | 36 | 1011.9 |
| 20260504194744 | 54 | 346 | 0.0 | 0.0 | 0.00 | 0.00 | 0.00 | 36 | 1011.9 |
| 20260504193748 | 54 | 313 | 0.0 | 0.0 | 0.00 | 0.00 | 0.00 | 37 | 1011.7 |
| 20260504193137 | 54 | 80 | 0.0 | 0.0 | 0.00 | 0.00 | 0.00 | 37 | 1011.7 |
| 20260504192739 | 54 | 11 | 0.0 | 0.0 | 0.00 | 0.00 | 0.00 | 37 | 1011.5 |
| 20260504192250 | 55 | 306 | 0.0 | 0.0 | 0.00 | 0.00 | 0.00 | 37 | 1011.5 |
| 20260504191747 | 55 | 302 | 0.0 | 0.0 | 0.00 | 0.00 | 0.00 | 37 | 1011.5 |
| 20260504191238 | 55 | 320 | 0.0 | 0.0 | 0.00 | 0.00 | 0.00 | 36 | 1011.0 |
| 20260504190752 | 55 | 337 | 0.0 | 0.0 | 0.00 | 0.00 | 0.00 | 33 | 1011.0 |
| 20260504190250 | 55 | 346 | 0.0 | 0.0 | 0.00 | 0.00 | 0.00 | 33 | 1011.0 |
| 20260504190137 | 55 | 357 | 0.0 | 0.0 | 0.00 | 0.00 | 0.00 | 33 | 1011.0 |
| 20260504185238 | 55 | 334 | 0.0 | 0.0 | 0.00 | 0.00 | 0.00 | 35 | 1010.7 |
| 20260504184748 | 55 | 300 | 0.0 | 0.0 | 0.00 | 0.00 | 0.00 | 36 | 1010.7 |
| 20260504184241 | 55 | 316 | 0.0 | 0.0 | 0.00 | 0.00 | 0.00 | 37 | 1010.3 |
| 20260504183751 | 55 | 29 | 0.0 | 0.0 | 0.00 | 0.00 | 0.00 | 38 | 1010.3 |
| 20260504183249 | 55 | 313 | 0.0 | 0.0 | 0.00 | 0.00 | 0.00 | 40 | 1010.3 |
| 20260504183137 | 55 | 306 | 0.0 | 0.0 | 0.00 | 0.00 | 0.00 | 40 | 1010.3 |
| 20260504182742 | 55 | 347 | 0.0 | 0.0 | 0.00 | 0.00 | 0.00 | 40 | 1010.2 |
| 20260504182252 | 55 | 2 | 0.0 | 0.0 | 0.00 | 0.00 | 0.00 | 42 | 1010.2 |
| 20260504181745 | 55 | 353 | 0.0 | 0.0 | 0.00 | 0.00 | 0.00 | 41 | 1010.2 |
| 20260504181235 | 55 | 24 | 0.0 | 0.0 | 0.00 | 0.00 | 0.00 | 41 | 1009.6 |
| 20260504180736 | 55 | 326 | 0.0 | 0.0 | 0.00 | 0.00 | 0.00 | 41 | 1009.6 |
| 20260504180254 | 55 | 45 | 0.0 | 0.0 | 0.00 | 0.00 | 0.00 | 41 | 1009.6 |
| 20260504180137 | 55 | 355 | 0.0 | 0.0 | 0.00 | 0.00 | 0.00 | 41 | 1009.6 |
| 20260504175735 | 55 | 326 | 0.0 | 0.0 | 0.00 | 0.00 | 0.00 | 41 | 1008.9 |
| 20260504175247 | 55 | 326 | 0.0 | 0.0 | 0.00 | 0.00 | 0.00 | 41 | 1008.9 |
| 20260504174740 | 55 | 323 | 0.0 | 0.0 | 0.00 | 0.00 | 0.00 | 41 | 1008.9 |
| 20260504174250 | 55 | 322 | 0.0 | 0.0 | 0.00 | 0.00 | 0.00 | 41 | 1008.4 |
| 20260504173739 | 55 | 322 | 0.0 | 0.0 | 0.00 | 0.00 | 0.00 | 42 | 1008.4 |
| 20260504173130 | 55 | 317 | 0.0 | 0.0 | 0.00 | 0.00 | 0.00 | 43 | 1008.4 |
| 20260504172750 | 55 | 320 | 0.0 | 0.0 | 0.00 | 0.00 | 0.00 | 43 | 1008.3 |
| 20260504172238 | 54 | 83 | 0.0 | 0.0 | 0.00 | 0.00 | 0.00 | 44 | 1008.2 |
| 20260504170740 | 54 | 8 | 0.0 | 0.0 | 0.00 | 0.00 | 0.00 | 44 | 1007.8 |
| 20260504170237 | 54 | 336 | 0.0 | 0.0 | 0.00 | 0.00 | 0.00 | 44 | 1007.8 |
| 20260504170141 | 54 | 323 | 0.0 | 0.0 | 0.00 | 0.00 | 0.00 | 44 | 1007.8 |
| 20260504160251 | 55 | 350 | 0.0 | 0.0 | 0.00 | 0.00 | 0.00 | 43 | 1006.6 |
| 20260504160135 | 55 | 55 | 0.0 | 0.0 | 0.00 | 0.00 | 0.00 | 43 | 1006.6 |
| 20260504150744 | 58 | 348 | 0.0 | 0.0 | 0.00 | 0.00 | 0.00 | 45 | 1004.9 |
| 20260504150242 | 58 | 354 | 0.0 | 0.0 | 0.00 | 0.00 | 0.00 | 45 | 1004.9 |
| 20260504150146 | 58 | 322 | 0.0 | 0.0 | 0.00 | 0.00 | 0.00 | 45 | 1004.9 |
| 20260504141250 | 58 | 21 | 0.0 | 0.0 | 0.00 | 0.00 | 0.11 | 47 | 1003.4 |
| 20260504140743 | 59 | 322 | 0.0 | 0.0 | 0.00 | 0.00 | 0.11 | 47 | 1003.4 |
| 20260504140238 | 59 | 353 | 0.0 | 0.0 | 0.00 | 0.00 | 0.11 | 47 | 1003.4 |
| 20260504140142 | 59 | 26 | 0.0 | 0.0 | 0.00 | 0.00 | 0.11 | 47 | 1003.4 |
| 20260504130244 | 60 | 1 | 0.0 | 0.0 | 0.00 | 0.00 | 0.11 | 45 | 1001.9 |
| 20260504130132 | 60 | 316 | 0.0 | 0.0 | 0.00 | 0.00 | 0.11 | 45 | 1001.9 |
| 20260504120242 | 63 | 98 | 0.0 | 0.0 | 0.00 | 0.00 | 0.11 | 41 | 1000.3 |
| 20260504120127 | 64 | 324 | 0.0 | 0.0 | 0.00 | 0.00 | 0.11 | 41 | 1000.3 |
| 20260504110130 | 66 | 5 | 0.0 | 0.0 | 0.00 | 0.00 | 0.11 | 40 | 997.7 |
| 20260504100239 | 73 | 53 | 0.0 | 0.0 | 0.00 | 0.00 | 0.11 | 27 | 995.2 |
| 20260504100143 | 73 | 11 | 0.0 | 0.0 | 0.00 | 0.00 | 0.11 | 27 | 995.2 |
| 20260504090134 | 77 | 73 | 0.0 | 0.0 | 0.00 | 0.00 | 0.11 | 27 | 993.0 |
| 20260504081742 | 78 | 113 | 0.0 | 0.0 | 0.00 | 0.00 | 0.11 | 29 | 991.7 |
| 20260504081252 | 78 | 113 | 0.0 | 0.0 | 0.00 | 0.00 | 0.11 | 28 | 991.1 |
| 20260504080742 | 78 | 220 | 1.0 | 0.0 | 0.00 | 0.00 | 0.11 | 29 | 991.1 |
| 20260504070248 | 79 | 228 | 7.0 | 0.0 | 0.00 | 0.00 | 0.11 | 32 | 990.3 |
| 20260504060130 | 83 | 197 | 8.0 | 0.0 | 0.00 | 0.00 | 0.11 | 30 | 989.8 |
| 20260504050247 | 88 | 298 | 3.0 | 0.0 | 0.00 | 0.00 | 0.11 | 31 | 989.3 |
| 20260504050131 | 88 | 298 | 4.0 | 0.0 | 0.00 | 0.00 | 0.11 | 31 | 989.3 |
| 20260504045752 | 88 | 309 | 5.0 | 0.0 | 0.00 | 0.00 | 0.11 | 31 | 989.4 |
| 20260504045241 | 88 | 18 | 5.0 | 0.0 | 0.00 | 0.00 | 0.11 | 32 | 989.4 |
| 20260504044737 | 88 | 271 | 4.0 | 0.0 | 0.00 | 0.00 | 0.11 | 32 | 989.4 |
| 20260504044247 | 87 | 52 | 6.0 | 0.0 | 0.00 | 0.00 | 0.11 | 33 | 989.7 |
| 20260504043735 | 86 | 84 | 8.0 | 0.0 | 0.00 | 0.00 | 0.11 | 33 | 989.7 |
| 20260504043253 | 86 | 101 | 7.0 | 0.0 | 0.00 | 0.00 | 0.11 | 33 | 989.7 |
| 20260504043139 | 85 | 97 | 6.0 | 0.0 | 0.00 | 0.00 | 0.11 | 33 | 989.6 |
| 20260504042736 | 85 | 115 | 7.0 | 0.0 | 0.00 | 0.00 | 0.11 | 35 | 989.8 |
| 20260504042248 | 85 | 130 | 7.0 | 0.0 | 0.00 | 0.00 | 0.11 | 35 | 989.8 |
| 20260504041740 | 85 | 106 | 7.0 | 0.0 | 0.00 | 0.00 | 0.11 | 35 | 989.8 |
| 20260504041248 | 84 | 111 | 8.0 | 0.0 | 0.00 | 0.00 | 0.11 | 36 | 990.0 |
| 20260504040742 | 84 | 145 | 6.0 | 0.0 | 0.00 | 0.00 | 0.11 | 37 | 990.0 |
| 20260504040241 | 84 | 151 | 7.0 | 0.0 | 0.00 | 0.00 | 0.11 | 37 | 990.0 |
| 20260504040146 | 84 | 125 | 7.0 | 0.0 | 0.00 | 0.00 | 0.11 | 36 | 990.0 |
| 20260504035746 | 84 | 169 | 8.0 | 0.0 | 0.00 | 0.00 | 0.11 | 36 | 990.3 |
| 20260504035236 | 84 | 156 | 7.0 | 0.0 | 0.00 | 0.00 | 0.11 | 36 | 990.3 |
| 20260504034750 | 85 | 162 | 5.0 | 0.0 | 0.00 | 0.00 | 0.11 | 36 | 990.3 |
| 20260504034239 | 84 | 146 | 5.0 | 0.0 | 0.00 | 0.00 | 0.11 | 36 | 990.7 |
| 20260504033749 | 84 | 154 | 4.0 | 0.0 | 0.00 | 0.00 | 0.11 | 37 | 990.7 |
| 20260504033241 | 84 | 214 | 4.0 | 0.0 | 0.00 | 0.00 | 0.11 | 39 | 990.7 |
| 20260504033131 | 84 | 235 | 5.0 | 0.0 | 0.00 | 0.00 | 0.11 | 40 | 990.7 |
| 20260504032748 | 84 | 228 | 6.0 | 0.0 | 0.00 | 0.00 | 0.11 | 41 | 990.5 |
| 20260504032238 | 83 | 166 | 5.0 | 0.0 | 0.00 | 0.00 | 0.11 | 40 | 990.4 |
| 20260504031752 | 83 | 159 | 5.0 | 0.0 | 0.00 | 0.00 | 0.11 | 40 | 990.4 |
| 20260504031246 | 83 | 89 | 5.0 | 0.0 | 0.00 | 0.00 | 0.11 | 43 | 990.9 |
| 20260504030743 | 83 | 172 | 5.0 | 0.0 | 0.00 | 0.00 | 0.11 | 45 | 990.9 |
| 20260504030132 | 83 | 152 | 6.0 | 0.0 | 0.00 | 0.00 | 0.11 | 44 | 990.9 |
| 20260504025242 | 84 | 120 | 6.0 | 0.0 | 0.00 | 0.00 | 0.11 | 43 | 991.0 |
| 20260504024736 | 84 | 138 | 5.0 | 0.0 | 0.00 | 0.00 | 0.11 | 42 | 991.0 |
| 20260504024249 | 83 | 122 | 4.0 | 0.0 | 0.00 | 0.00 | 0.11 | 44 | 991.2 |
| 20260504023739 | 83 | 137 | 4.0 | 0.0 | 0.00 | 0.00 | 0.11 | 44 | 991.2 |
| 20260504023241 | 83 | 131 | 3.0 | 0.0 | 0.00 | 0.00 | 0.11 | 45 | 991.2 |
| 20260504023145 | 83 | 149 | 3.0 | 0.0 | 0.00 | 0.00 | 0.11 | 45 | 991.2 |
| 20260504022746 | 83 | 151 | 3.0 | 0.0 | 0.00 | 0.00 | 0.11 | 46 | 991.3 |
| 20260504022234 | 83 | 117 | 3.0 | 0.0 | 0.00 | 0.00 | 0.11 | 47 | 991.3 |
| 20260504021750 | 83 | 134 | 1.0 | 0.0 | 0.00 | 0.00 | 0.11 | 45 | 991.3 |
| 20260504021242 | 82 | 97 | 1.0 | 0.0 | 0.00 | 0.00 | 0.11 | 48 | 991.5 |
| 20260504020739 | 81 | 55 | 1.0 | 0.0 | 0.00 | 0.00 | 0.11 | 50 | 991.5 |
| 20260504020238 | 80 | 67 | 0.0 | 0.0 | 0.00 | 0.00 | 0.11 | 52 | 991.5 |
| 20260504020141 | 80 | 67 | 1.0 | 0.0 | 0.00 | 0.00 | 0.11 | 52 | 991.5 |
| 20260504014739 | 79 | 250 | 0.0 | 0.0 | 0.00 | 0.00 | 0.11 | 53 | 991.9 |
| 20260504014247 | 79 | 14 | 0.0 | 0.0 | 0.00 | 0.00 | 0.11 | 54 | 992.2 |
| 20260504013236 | 78 | 12 | 0.0 | 0.0 | 0.00 | 0.00 | 0.11 | 56 | 992.2 |
| 20260504013140 | 78 | 12 | 0.0 | 0.0 | 0.00 | 0.00 | 0.11 | 56 | 992.2 |
| 20260504012741 | 77 | 2 | 0.0 | 0.0 | 0.00 | 0.00 | 0.11 | 56 | 992.3 |
| 20260504012250 | 77 | 353 | 0.0 | 0.0 | 0.00 | 0.00 | 0.11 | 56 | 992.3 |
| 20260504011745 | 77 | 5 | 0.0 | 0.0 | 0.00 | 0.00 | 0.11 | 56 | 992.3 |
| 20260504011234 | 76 | 35 | 0.0 | 0.0 | 0.00 | 0.00 | 0.11 | 57 | 992.5 |
| 20260504010742 | 76 | 10 | 0.0 | 0.0 | 0.00 | 0.00 | 0.11 | 59 | 992.5 |
| 20260504010241 | 75 | 14 | 0.0 | 0.0 | 0.00 | 0.00 | 0.11 | 59 | 992.5 |
| 20260504010145 | 75 | 25 | 0.0 | 0.0 | 0.00 | 0.00 | 0.11 | 59 | 992.5 |
| 20260504005748 | 75 | 355 | 0.0 | 0.0 | 0.00 | 0.00 | 0.11 | 59 | 992.8 |
| 20260504005239 | 74 | 1 | 0.0 | 0.0 | 0.00 | 0.00 | 0.11 | 60 | 992.8 |
| 20260504004248 | 74 | 38 | 0.0 | 0.0 | 0.00 | 0.00 | 0.11 | 61 | 992.9 |
| 20260504003737 | 74 | 42 | 0.0 | 0.0 | 0.00 | 0.00 | 0.11 | 61 | 992.9 |
| 20260504003255 | 74 | 336 | 0.0 | 0.0 | 0.00 | 0.00 | 0.11 | 61 | 992.9 |
| 20260504002743 | 73 | 21 | 0.0 | 0.0 | 0.00 | 0.00 | 0.11 | 62 | 992.9 |
| 20260504002248 | 73 | 36 | 0.0 | 0.0 | 0.00 | 0.00 | 0.11 | 63 | 992.9 |
| 20260504001741 | 72 | 351 | 0.0 | 0.0 | 0.00 | 0.00 | 0.11 | 64 | 992.9 |
| 20260504001252 | 72 | 53 | 0.0 | 0.0 | 0.00 | 0.00 | 0.11 | 65 | 992.9 |
| 20260504000749 | 71 | 347 | 0.0 | 0.0 | 0.00 | 0.00 | 0.11 | 66 | 992.9 |
| 20260504000245 | 71 | 329 | 0.0 | 0.0 | 0.00 | 0.00 | 0.11 | 66 | 992.9 |
| 20260504000129 | 71 | 327 | 0.0 | 0.0 | 0.00 | 0.00 | 0.11 | 66 | 992.9 |
| 20260503235751 | 70 | 19 | 0.0 | 0.0 | 0.00 | 0.00 | 0.11 | 67 | 992.9 |
| 20260503235240 | 70 | 26 | 0.0 | 0.0 | 0.00 | 0.00 | 0.11 | 69 | 992.9 |
| 20260503234253 | 69 | 10 | 0.0 | 0.0 | 0.00 | 0.00 | 0.11 | 70 | 992.9 |
| 20260503233744 | 68 | 22 | 0.0 | 0.0 | 0.00 | 0.00 | 0.11 | 71 | 992.9 |
| 20260503233238 | 68 | 42 | 0.0 | 0.0 | 0.00 | 0.00 | 0.11 | 72 | 992.9 |
| 20260503232745 | 67 | 360 | 0.0 | 0.0 | 0.00 | 0.00 | 0.11 | 74 | 993.0 |
| 20260503231754 | 66 | 358 | 0.0 | 0.0 | 0.00 | 0.00 | 0.11 | 76 | 992.9 |
| 20260503231244 | 66 | 320 | 0.0 | 0.0 | 0.00 | 0.00 | 0.11 | 77 | 992.7 |
| 20260503230738 | 66 | 343 | 0.0 | 0.0 | 0.00 | 0.00 | 0.11 | 78 | 992.7 |
| 20260503230236 | 66 | 25 | 0.0 | 0.0 | 0.00 | 0.00 | 0.11 | 79 | 992.7 |
| 20260503230140 | 66 | 22 | 0.0 | 0.0 | 0.00 | 0.00 | 0.11 | 79 | 992.7 |
| 20260503225240 | 65 | 355 | 0.0 | 0.0 | 0.00 | 0.00 | 0.11 | 81 | 992.9 |
| 20260503224749 | 65 | 1 | 0.0 | 0.0 | 0.00 | 0.00 | 0.11 | 83 | 992.9 |
| 20260503223737 | 64 | 344 | 0.0 | 0.0 | 0.00 | 0.00 | 0.11 | 85 | 992.8 |
| 20260503223141 | 63 | 19 | 0.0 | 0.0 | 0.00 | 0.00 | 0.11 | 86 | 992.8 |
| 20260503222742 | 63 | 21 | 0.0 | 0.0 | 0.00 | 0.00 | 0.11 | 86 | 992.6 |
| 20260503222252 | 63 | 35 | 0.0 | 0.0 | 0.00 | 0.00 | 0.11 | 87 | 992.6 |
| 20260503221749 | 63 | 336 | 0.0 | 0.0 | 0.00 | 0.00 | 0.11 | 88 | 992.6 |
| 20260503220737 | 62 | 333 | 0.0 | 0.0 | 0.00 | 0.00 | 0.11 | 88 | 992.7 |
| 20260503220250 | 62 | 360 | 0.0 | 0.0 | 0.00 | 0.00 | 0.11 | 89 | 992.7 |
| 20260503220137 | 62 | 19 | 0.0 | 0.0 | 0.00 | 0.00 | 0.11 | 89 | 992.7 |
| 20260503215736 | 62 | 344 | 0.0 | 0.0 | 0.00 | 0.00 | 0.11 | 89 | 992.6 |
| 20260503215247 | 62 | 45 | 0.0 | 0.0 | 0.00 | 0.00 | 0.11 | 89 | 992.6 |
| 20260503214741 | 62 | 337 | 0.0 | 0.0 | 0.00 | 0.00 | 0.11 | 89 | 992.6 |
| 20260503214249 | 62 | 330 | 0.0 | 0.0 | 0.00 | 0.00 | 0.11 | 89 | 992.1 |
| 20260503213740 | 62 | 334 | 0.0 | 0.0 | 0.00 | 0.00 | 0.11 | 90 | 992.1 |
| 20260503213240 | 62 | 355 | 0.0 | 0.0 | 0.00 | 0.00 | 0.11 | 90 | 992.1 |
| 20260503213128 | 62 | 5 | 0.0 | 0.0 | 0.00 | 0.00 | 0.11 | 89 | 992.1 |
| 20260503212750 | 61 | 5 | 0.0 | 0.0 | 0.00 | 0.00 | 0.11 | 89 | 991.8 |
| 20260503212240 | 62 | 327 | 0.0 | 0.0 | 0.00 | 0.00 | 0.11 | 90 | 991.9 |
| 20260503211248 | 62 | 319 | 0.0 | 0.0 | 0.00 | 0.00 | 0.11 | 89 | 991.9 |
| 20260503210745 | 62 | 313 | 0.0 | 0.0 | 0.00 | 0.00 | 0.11 | 89 | 991.9 |
| 20260503210246 | 62 | 331 | 0.0 | 0.0 | 0.00 | 0.00 | 0.11 | 89 | 991.9 |
| 20260503210130 | 62 | 316 | 0.0 | 0.0 | 0.00 | 0.00 | 0.11 | 89 | 991.9 |
| 20260503205751 | 63 | 334 | 0.0 | 0.0 | 0.00 | 0.00 | 0.11 | 89 | 991.8 |
| 20260503204745 | 66 | 341 | 0.0 | 0.0 | 0.00 | 0.00 | 0.11 | 87 | 991.9 |
| 20260503204235 | 68 | 125 | 0.0 | 0.0 | 0.00 | 0.00 | 0.11 | 90 | 991.7 |
| 20260503203747 | 68 | 125 | 0.0 | 0.0 | 0.00 | 0.00 | 0.11 | 90 | 991.7 |
| 20260503203244 | 68 | 125 | 0.0 | 0.0 | 0.00 | 0.00 | 0.11 | 90 | 991.7 |
| 20260503202749 | 68 | 175 | 0.0 | 0.0 | 0.00 | 0.00 | 0.11 | 90 | 991.8 |
| 20260503201739 | 67 | 265 | 0.0 | 0.0 | 0.00 | 0.00 | 0.11 | 90 | 991.8 |
| 20260503201249 | 67 | 257 | 0.0 | 0.0 | 0.00 | 0.00 | 0.11 | 90 | 992.3 |
| 20260503200743 | 67 | 186 | 0.0 | 0.0 | 0.00 | 0.00 | 0.10 | 90 | 992.3 |
| 20260503200243 | 66 | 128 | 0.0 | 0.0 | 0.00 | 0.00 | 0.10 | 89 | 992.3 |
| 20260503200127 | 66 | 127 | 0.0 | 0.0 | 0.00 | 0.00 | 0.10 | 89 | 992.3 |
| 20260503195749 | 66 | 128 | 0.0 | 0.0 | 0.00 | 0.00 | 0.09 | 89 | 992.7 |
| 20260503195237 | 66 | 138 | 0.0 | 0.0 | 0.00 | 0.00 | 0.09 | 89 | 992.7 |
| 20260503194750 | 66 | 138 | 0.0 | 0.0 | 0.00 | 0.00 | 0.09 | 89 | 992.7 |
| 20260503194240 | 66 | 137 | 0.0 | 0.0 | 0.00 | 0.00 | 0.07 | 89 | 992.8 |
| 20260503193750 | 66 | 138 | 0.0 | 0.0 | 0.00 | 0.00 | 0.06 | 88 | 992.8 |
| 20260503193246 | 66 | 138 | 0.0 | 0.0 | 0.00 | 0.00 | 0.06 | 88 | 992.8 |
| 20260503192753 | 66 | 138 | 0.0 | 0.0 | 0.00 | 0.00 | 0.04 | 88 | 993.1 |
| 20260503192243 | 66 | 138 | 0.0 | 0.0 | 0.00 | 0.00 | 0.03 | 88 | 993.1 |
| 20260503191739 | 66 | 138 | 0.0 | 0.0 | 0.00 | 0.00 | 0.02 | 88 | 993.1 |
| 20260503191250 | 66 | 113 | 0.0 | 0.0 | 0.00 | 0.00 | 0.02 | 88 | 993.2 |
| 20260503190745 | 66 | 124 | 0.0 | 0.0 | 0.00 | 0.00 | 0.02 | 87 | 993.2 |
| 20260503190241 | 66 | 130 | 0.0 | 0.0 | 0.00 | 0.00 | 0.02 | 87 | 993.2 |
| 20260503190124 | 66 | 128 | 0.0 | 0.0 | 0.00 | 0.00 | 0.02 | 87 | 993.2 |
| 20260503185748 | 66 | 125 | 0.0 | 0.0 | 0.00 | 0.00 | 0.01 | 87 | 993.9 |
| 20260503184251 | 66 | 172 | 4.0 | 0.0 | 0.00 | 0.00 | 0.01 | 86 | 994.5 |
| 20260503183741 | 66 | 141 | 3.0 | 0.0 | 0.00 | 0.00 | 0.01 | 85 | 994.5 |
| 20260503183129 | 65 | 163 | 3.0 | 0.0 | 0.00 | 0.00 | 0.01 | 84 | 994.4 |
| 20260503182753 | 65 | 124 | 4.0 | 0.0 | 0.00 | 0.00 | 0.01 | 84 | 994.9 |
| 20260503182241 | 65 | 170 | 4.0 | 0.0 | 0.00 | 0.00 | 0.01 | 83 | 994.9 |
| 20260503181248 | 65 | 130 | 5.0 | 0.0 | 0.00 | 0.00 | 0.00 | 81 | 994.7 |
| 20260503180746 | 65 | 186 | 7.0 | 0.0 | 0.00 | 0.00 | 0.00 | 80 | 994.7 |
| 20260503180238 | 65 | 134 | 8.0 | 0.0 | 0.00 | 0.00 | 0.00 | 80 | 994.7 |
| 20260503180141 | 65 | 145 | 8.0 | 0.0 | 0.00 | 0.00 | 0.00 | 80 | 994.7 |
| 20260503175744 | 65 | 138 | 8.0 | 0.0 | 0.00 | 0.00 | 0.00 | 79 | 994.9 |
| 20260503175254 | 66 | 131 | 8.0 | 0.0 | 0.00 | 0.00 | 0.00 | 77 | 995.0 |
| 20260503174747 | 66 | 138 | 8.0 | 0.0 | 0.00 | 0.00 | 0.00 | 76 | 995.0 |